QPF
0.00 0.00 0.00 0.00 0.00 0.00 0.00 0.00 0.00 0.00 0.00 0.00 0.00 0.00 0.00 0.00 0.00 0.03 0.04 0.02 0.06 0.13 0.14 0.07 0.02 0.01 0.02 0.03 0.06 0.08 0.14 0.13 0.04 0.04 0.00 0.01 0.01 0.00 0.00 0.00 0.00 0.00 0.00
0.00 0.00 0.00 0.00 0.00 0.00 0.00 0.00 0.00 0.00 0.00 0.00 0.00 0.00 0.00 0.00 0.00 0.00 0.00 0.01 0.07 0.10 0.07 0.05 0.01 0.02 0.02 0.07 0.09 0.05 0.09 0.05 0.02 0.03 0.00 0.01 0.00 0.03 0.01 0.00 0.00 0.00 0.00
0.00 0.00 0.00 0.00 0.00 0.00 0.00 0.00 0.00 0.00 0.00 0.00 0.00 0.00 0.00 0.00 0.00 0.00 0.00 0.01 0.02 0.03 0.03 0.03 0.02 0.03 0.04 0.11 0.08 0.07 0.05 0.05 0.01 0.01 0.00 0.01 0.02 0.01 0.00 0.00 0.00 0.00 0.00
0.00 0.00 0.00 0.00 0.00 0.00 0.00 0.00 0.00 0.00 0.00 0.00 0.00 0.00 0.00 0.00 0.00 0.00 0.00 0.00 0.00 0.00 0.01 0.02 0.02 0.04 0.04 0.13 0.11 0.10 0.09 0.07 0.03 0.01 0.01 0.06 0.04 0.01 0.00 0.00 0.00 0.00 0.00
0.00 0.00 0.00 0.00 0.00 0.00 0.00 0.00 0.00 0.00 0.00 0.00 0.00 0.00 0.00 0.00 0.00 0.00 0.00 0.00 0.00 0.00 0.00 0.01 0.05 0.09 0.06 0.09 0.08 0.06 0.09 0.07 0.03 0.03 0.03 0.02 0.01 0.01 0.00 0.00 0.00 0.00 0.00
0.00 0.00 0.00 0.00 0.00 0.00 0.00 0.00 0.00 0.00 0.00 0.00 0.00 0.00 0.00 0.00 0.00 0.00 0.00 0.00 0.00 0.04 0.02 0.06 0.14 0.10 0.07 0.10 0.12 0.06 0.04 0.03 0.02 0.01 0.02 0.01 0.01 0.00 0.00 0.00 0.00 0.00 0.00
0.00 0.00 0.00 0.00 0.00 0.00 0.00 0.00 0.00 0.00 0.00 0.00 0.00 0.00 0.00 0.00 0.00 0.00 0.00 0.00 0.02 0.06 0.09 0.11 0.24 0.17 0.14 0.10 0.10 0.03 0.01 0.01 0.03 0.02 0.00 0.00 0.00 0.00 0.01 0.02 0.01 0.00 0.00
0.00 0.00 0.00 0.00 0.00 0.00 0.00 0.00 0.00 0.00 0.00 0.00 0.00 0.00 0.00 0.00 0.00 0.00 0.00 0.01 0.03 0.08 0.09 0.16 0.23 0.10 0.11 0.09 0.08 0.06 0.03 0.01 0.02 0.01 0.00 0.00 0.00 0.01 0.10 0.07 0.01 0.00 0.00
0.00 0.00 0.00 0.00 0.00 0.00 0.00 0.00 0.00 0.00 0.00 0.00 0.00 0.00 0.00 0.00 0.00 0.00 0.00 0.00 0.04 0.12 0.16 0.18 0.16 0.11 0.15 0.05 0.05 0.03 0.01 0.00 0.00 0.00 0.00 0.00 0.01 0.04 0.08 0.03 0.02 0.02 0.00
0.00 0.00 0.00 0.00 0.00 0.00 0.00 0.00 0.00 0.00 0.00 0.00 0.00 0.00 0.00 0.00 0.00 0.00 0.00 0.01 0.06 0.17 0.30 0.33 0.27 0.23 0.15 0.06 0.01 0.00 0.00 0.00 0.00 0.00 0.00 0.00 0.00 0.00 0.01 0.01 0.02 0.03 0.02
0.00 0.00 0.00 0.00 0.00 0.00 0.00 0.00 0.00 0.00 0.00 0.00 0.00 0.00 0.00 0.00 0.00 0.00 0.00 0.03 0.06 0.16 0.18 0.16 0.15 0.11 0.07 0.04 0.01 0.00 0.00 0.00 0.00 0.01 0.00 0.00 0.00 0.00 0.00 0.00 0.04 0.03 0.02
0.00 0.00 0.00 0.00 0.00 0.00 0.00 0.00 0.00 0.00 0.00 0.00 0.00 0.00 0.00 0.00 0.00 0.00 0.01 0.04 0.11 0.13 0.08 0.13 0.11 0.06 0.03 0.01 0.00 0.00 0.00 0.00 0.00 0.00 0.00 0.00 0.00 0.00 0.00 0.00 0.04 0.04 0.03
0.00 0.00 0.00 0.00 0.00 0.00 0.00 0.00 0.00 0.00 0.00 0.00 0.00 0.00 0.00 0.00 0.00 0.00 0.03 0.08 0.15 0.25 0.24 0.20 0.13 0.08 0.05 0.01 0.00 0.00 0.00 0.00 0.00 0.00 0.00 0.00 0.00 0.00 0.00 0.00 0.00 0.00 0.02
0.00 0.00 0.00 0.00 0.00 0.00 0.00 0.00 0.00 0.00 0.00 0.00 0.00 0.00 0.00 0.00 0.00 0.01 0.04 0.07 0.14 0.28 0.21 0.13 0.08 0.04 0.01 0.00 0.00 0.00 0.00 0.00 0.00 0.00 0.00 0.00 0.00 0.00 0.00 0.00 0.00 0.00 0.00
0.00 0.00 0.00 0.00 0.00 0.00 0.00 0.00 0.00 0.00 0.00 0.00 0.00 0.00 0.00 0.00 0.00 0.02 0.06 0.08 0.13 0.09 0.06 0.05 0.01 0.00 0.00 0.00 0.00 0.00 0.00 0.00 0.00 0.00 0.00 0.00 0.00 0.00 0.00 0.00 0.00 0.00 0.00
0.00 0.00 0.00 0.00 0.00 0.00 0.00 0.00 0.00 0.00 0.00 0.00 0.00 0.00 0.02 0.02 0.04 0.08 0.20 0.27 0.25 0.12 0.04 0.01 0.00 0.00 0.00 0.00 0.00 0.00 0.00 0.00 0.00 0.00 0.00 0.00 0.00 0.00 0.00 0.00 0.00 0.00 0.00
0.00 0.00 0.00 0.00 0.00 0.00 0.00 0.00 0.00 0.00 0.00 0.00 0.00 0.01 0.04 0.06 0.10 0.11 0.19 0.21 0.17 0.07 0.02 0.00 0.00 0.00 0.00 0.00 0.00 0.00 0.00 0.00 0.00 0.00 0.00 0.00 0.00 0.00 0.00 0.00 0.00 0.00 0.00
0.00 0.00 0.00 0.00 0.00 0.00 0.00 0.00 0.00 0.00 0.00 0.01 0.03 0.07 0.07 0.10 0.12 0.13 0.14 0.11 0.05 0.03 0.00 0.00 0.00 0.00 0.00 0.00 0.00 0.00 0.00 0.00 0.00 0.00 0.00 0.00 0.00 0.00 0.00 0.00 0.00 0.00 0.00
0.00 0.00 0.00 0.00 0.01 0.01 0.01 0.01 0.01 0.01 0.03 0.06 0.11 0.10 0.13 0.13 0.13 0.09 0.08 0.07 0.03 0.00 0.00 0.00 0.00 0.00 0.00 0.00 0.00 0.00 0.00 0.00 0.00 0.00 0.00 0.00 0.00 0.00 0.00 0.00 0.00 0.00 0.00
0.00 0.00 0.00 0.00 0.01 0.03 0.03 0.03 0.02 0.02 0.06 0.09 0.09 0.07 0.07 0.06 0.06 0.04 0.02 0.01 0.00 0.00 0.00 0.00 0.00 0.00 0.00 0.00 0.00 0.00 0.00 0.00 0.00 0.00 0.00 0.00 0.00 0.00 0.00 0.00 0.00 0.00 0.00
0.00 0.01 0.01 0.01 0.03 0.05 0.03 0.03 0.03 0.05 0.07 0.05 0.04 0.06 0.05 0.04 0.02 0.01 0.00 0.00 0.00 0.00 0.00 0.00 0.00 0.00 0.00 0.00 0.00 0.00 0.00 0.00 0.00 0.00 0.00 0.00 0.00 0.00 0.00 0.00 0.00 0.00 0.00
0.02 0.02 0.01 0.01 0.04 0.04 0.02 0.02 0.02 0.07 0.08 0.04 0.04 0.05 0.03 0.02 0.01 0.00 0.00 0.00 0.00 0.00 0.00 0.00 0.00 0.00 0.00 0.00 0.00 0.00 0.00 0.00 0.00 0.00 0.00 0.00 0.00 0.00 0.00 0.00 0.00 0.00 0.00
0.01 0.01 0.02 0.03 0.03 0.03 0.02 0.03 0.05 0.07 0.04 0.02 0.02 0.01 0.02 0.01 0.00 0.00 0.00 0.00 0.00 0.00 0.00 0.00 0.00 0.00 0.00 0.00 0.00 0.00 0.00 0.00 0.00 0.00 0.00 0.00 0.00 0.00 0.00 0.01 0.00 0.00 0.00
0.02 0.02 0.01 0.01 0.02 0.04 0.03 0.04 0.03 0.03 0.01 0.00 0.00 0.00 0.00 0.00 0.00 0.00 0.00 0.00 0.00 0.00 0.00 0.00 0.00 0.00 0.00 0.00 0.00 0.00 0.00 0.00 0.00 0.00 0.00 0.00 0.00 0.00 0.00 0.00 0.00 0.00 0.00
0.04 0.05 0.04 0.02 0.02 0.02 0.03 0.01 0.01 0.00 0.01 0.00 0.00 0.00 0.00 0.00 0.00 0.00 0.00 0.00 0.00 0.00 0.00 0.00 0.00 0.00 0.00 0.00 0.00 0.00 0.00 0.00 0.00 0.00 0.00 0.00 0.00 0.00 0.00 0.00 0.00 0.00 0.00
0.02 0.03 0.02 0.01 0.00 0.00 0.00 0.00 0.00 0.00 0.00 0.00 0.00 0.00 0.00 0.00 0.00 0.00 0.00 0.00 0.00 0.00 0.00 0.00 0.00 0.00 0.00 0.00 0.00 0.00 0.00 0.00 0.00 0.00 0.00 0.00 0.00 0.00 0.00 0.00 0.00 0.00 0.00
MSLP
1005.04 1005.47 1005.81 1006.13 1006.22 1006.27 1006.39 1006.26 1006.17 1006.36 1006.59 1006.71 1006.68 1007.03 1006.65 1007.11 1006.99 1007.15 1007.31 1006.64 1006.25 1005.54 1005.85 1006.46 1006.06 1006.59 1006.76 1006.72 1007.03 1007.20 1007.64 1008.30 1008.34 1008.26 1007.94 1008.20 1008.49 1008.35 1008.57 1008.66 1008.83 1008.86 1009.03
1004.61 1005.06 1005.40 1005.65 1005.79 1006.27 1006.48 1006.41 1006.27 1006.04 1005.98 1006.18 1006.41 1006.51 1006.58 1006.82 1006.72 1006.49 1006.58 1005.90 1005.57 1005.39 1005.27 1005.85 1005.51 1005.66 1005.96 1005.95 1006.45 1006.73 1006.97 1007.66 1007.69 1007.76 1008.01 1008.30 1008.32 1008.40 1008.57 1008.72 1008.87 1008.77 1008.96
1004.25 1004.48 1004.79 1005.07 1005.25 1005.48 1005.79 1005.87 1005.82 1005.89 1005.93 1005.74 1005.57 1005.84 1006.01 1005.97 1005.84 1005.70 1005.79 1005.34 1004.91 1004.77 1004.61 1004.61 1004.98 1005.20 1005.06 1005.36 1005.67 1006.07 1006.41 1007.02 1007.11 1007.31 1007.94 1008.08 1008.16 1008.47 1008.53 1008.77 1008.86 1009.17 1009.06
1004.14 1004.59 1004.91 1005.01 1005.13 1005.28 1005.30 1005.36 1005.45 1005.39 1005.48 1005.37 1005.24 1005.21 1005.21 1005.24 1005.29 1005.06 1004.72 1004.41 1004.25 1003.95 1004.02 1004.25 1004.34 1004.35 1004.30 1004.62 1004.95 1004.93 1005.71 1006.40 1006.58 1006.96 1007.66 1008.03 1008.23 1008.39 1008.32 1008.90 1009.20 1009.27 1009.07
1004.07 1004.21 1004.29 1004.38 1004.54 1004.77 1004.97 1005.01 1004.93 1005.05 1004.91 1004.80 1004.67 1004.53 1004.49 1004.62 1004.62 1004.45 1004.19 1004.06 1003.78 1003.50 1003.49 1003.24 1003.25 1003.04 1003.09 1003.43 1003.93 1004.36 1005.10 1005.89 1006.33 1006.92 1007.31 1007.66 1008.04 1008.25 1008.18 1008.67 1009.06 1009.02 1008.83
1003.44 1003.46 1003.51 1003.72 1003.96 1004.09 1004.27 1004.46 1004.51 1004.51 1004.33 1004.17 1003.89 1003.93 1003.83 1003.66 1003.73 1003.73 1003.75 1003.71 1003.35 1002.96 1002.75 1002.34 1002.18 1002.54 1002.60 1002.81 1003.10 1003.44 1004.18 1005.05 1005.74 1006.29 1006.69 1007.07 1007.50 1007.68 1007.72 1008.25 1008.71 1008.86 1008.81
1002.73 1002.60 1002.69 1002.82 1003.04 1003.22 1003.45 1003.74 1003.95 1004.13 1004.13 1003.89 1003.45 1003.06 1002.69 1002.68 1002.83 1002.97 1002.94 1003.12 1002.98 1002.51 1002.13 1001.71 1001.93 1001.63 1001.83 1002.52 1003.05 1003.48 1003.95 1004.20 1004.53 1005.10 1005.97 1006.32 1006.88 1006.87 1007.17 1007.83 1008.12 1008.21 1008.28
1001.95 1001.96 1001.94 1002.07 1002.28 1002.54 1002.71 1002.79 1002.97 1003.20 1003.14 1003.09 1002.70 1002.20 1001.85 1001.82 1001.84 1001.95 1001.95 1002.06 1001.98 1001.65 1001.15 1000.83 1001.12 1001.08 1001.33 1002.06 1002.95 1003.61 1004.26 1004.47 1004.69 1004.69 1005.15 1005.53 1005.89 1006.26 1006.45 1006.75 1007.24 1007.77 1008.03
1000.84 1000.76 1000.84 1001.08 1001.36 1001.64 1001.79 1001.92 1002.05 1002.26 1002.20 1002.20 1001.96 1001.58 1001.27 1001.17 1001.17 1001.33 1001.60 1001.39 1001.10 1000.78 1000.13 999.92 1000.32 1000.75 1001.25 1001.58 1002.52 1003.40 1004.21 1004.63 1004.84 1004.82 1004.91 1005.25 1005.59 1005.88 1006.27 1006.80 1007.24 1007.70 1008.03
999.46 999.48 999.69 999.99 1000.33 1000.54 1000.69 1000.85 1001.08 1001.24 1001.30 1001.35 1001.11 1000.94 1000.66 1000.72 1000.65 1000.85 1001.13 1001.04 1000.61 1000.18 999.82 999.77 1000.27 1000.71 1001.55 1001.76 1002.42 1003.32 1004.01 1004.50 1004.73 1005.12 1005.28 1005.39 1005.71 1005.99 1006.13 1006.27 1006.68 1007.07 1007.43
998.15 998.36 998.67 998.91 999.24 999.51 999.66 999.82 1000.02 1000.33 1000.43 1000.35 1000.26 1000.20 1000.13 1000.12 999.95 1000.06 1000.37 1000.67 1000.29 999.94 999.94 999.76 1000.15 1001.10 1001.90 1001.81 1002.08 1002.76 1003.49 1003.94 1004.69 1005.13 1005.34 1005.77 1005.95 1006.16 1006.34 1006.49 1006.61 1006.74 1007.02
997.07 997.07 997.48 997.83 998.19 998.49 998.71 998.98 999.26 999.55 999.90 999.89 999.73 999.75 999.38 999.40 999.28 999.28 999.73 1000.14 999.42 999.54 999.36 999.37 999.84 1000.63 1001.47 1001.81 1002.23 1002.73 1003.14 1003.68 1004.54 1005.09 1005.59 1005.99 1006.18 1006.30 1006.37 1006.43 1006.53 1006.57 1006.49
996.04 996.29 996.56 996.83 997.17 997.47 997.78 997.99 998.51 998.70 998.96 998.98 999.15 999.06 998.92 998.75 998.65 998.88 999.21 999.53 999.54 999.15 998.78 999.23 1000.20 1001.11 1001.44 1002.08 1002.49 1002.89 1003.44 1003.78 1004.43 1005.13 1005.61 1005.96 1005.94 1005.93 1006.21 1006.48 1006.60 1006.63 1006.54
994.77 995.12 995.53 995.92 996.17 996.51 996.72 996.82 997.28 997.78 998.12 998.11 998.15 998.19 998.47 998.31 998.30 998.36 998.77 998.92 999.11 999.01 999.62 1000.45 1000.91 1001.34 1001.54 1002.54 1003.03 1003.28 1003.41 1003.65 1004.25 1004.99 1005.60 1005.86 1005.88 1006.11 1006.34 1006.39 1006.65 1006.76 1006.70
993.59 994.01 994.51 994.89 995.22 995.54 995.79 995.96 996.40 996.74 996.94 997.12 997.45 997.63 997.71 997.61 997.50 997.49 998.10 998.29 998.29 998.18 998.99 1000.24 1001.22 1001.66 1002.13 1002.62 1003.17 1003.39 1003.56 1003.93 1004.61 1005.17 1005.70 1005.84 1005.99 1006.13 1006.31 1006.37 1006.63 1006.86 1007.06
992.63 992.97 993.49 993.98 994.36 994.71 995.05 995.48 995.77 995.91 996.03 996.35 996.78 996.90 996.73 996.75 996.84 996.98 997.54 997.64 998.15 997.70 998.75 1000.02 1000.87 1001.23 1001.87 1002.68 1003.15 1003.48 1003.86 1004.25 1004.64 1005.00 1005.42 1005.64 1005.82 1005.98 1006.16 1006.39 1006.62 1006.82 1007.08
991.65 992.19 992.77 993.14 993.53 993.91 994.35 994.90 995.26 995.62 995.61 995.77 996.07 996.16 996.20 996.36 996.50 996.67 997.23 997.77 997.99 997.88 998.52 999.78 1000.47 1001.17 1001.96 1002.31 1002.85 1003.50 1003.91 1004.21 1004.44 1004.79 1005.17 1005.52 1005.62 1005.86 1006.17 1006.38 1006.59 1006.85 1007.18
991.10 991.71 992.12 992.29 992.66 993.06 993.49 993.90 994.20 994.50 994.79 994.88 994.90 995.08 995.12 995.71 996.20 996.55 997.15 997.69 998.03 998.31 998.54 999.54 1000.36 1001.01 1001.44 1002.21 1003.00 1003.38 1003.79 1004.21 1004.49 1004.74 1004.98 1005.20 1005.49 1005.75 1006.16 1006.36 1006.58 1006.74 1007.00
990.48 991.00 991.40 991.62 991.79 992.14 992.53 992.88 993.34 993.62 993.92 994.18 994.50 994.42 994.52 995.14 995.92 996.78 996.58 996.62 997.66 998.25 998.85 999.57 1000.06 1000.77 1001.65 1002.22 1002.74 1003.22 1003.58 1003.91 1004.12 1004.41 1004.78 1005.05 1005.43 1005.77 1006.09 1006.32 1006.59 1006.74 1006.98
989.83 990.15 990.48 990.70 990.96 991.20 991.61 992.00 992.33 992.77 993.21 993.55 993.78 993.96 994.78 995.56 996.14 996.66 996.95 997.48 997.75 998.10 998.71 999.38 1000.28 1000.94 1001.43 1002.02 1002.62 1003.08 1003.53 1003.91 1004.16 1004.39 1004.67 1004.92 1005.26 1005.53 1005.92 1006.29 1006.64 1006.93 1007.11
989.01 989.32 989.81 990.13 990.38 990.45 990.73 991.05 991.66 992.28 992.82 993.23 993.56 993.75 993.85 994.71 996.04 996.66 997.09 997.44 997.70 998.12 998.72 999.61 1000.29 1000.82 1001.33 1001.95 1002.53 1003.04 1003.50 1003.81 1004.00 1004.22 1004.47 1004.85 1005.21 1005.60 1005.95 1006.36 1006.74 1007.05 1007.29
987.68 988.12 989.11 989.26 989.23 989.38 989.88 990.73 991.20 991.91 992.53 993.16 993.75 994.92 994.92 995.51 996.22 996.81 997.28 997.64 997.91 998.21 998.75 999.51 1000.26 1000.72 1001.30 1001.91 1002.43 1003.01 1003.41 1003.65 1003.84 1004.12 1004.51 1004.88 1005.35 1005.87 1006.33 1006.73 1007.10 1007.41 1007.61
987.79 988.27 988.80 989.38 989.41 989.88 990.10 991.24 992.01 992.75 993.19 993.69 994.06 994.58 995.18 996.01 996.83 997.40 997.81 998.20 998.48 998.87 999.46 999.98 1000.70 1001.34 1001.67 1002.05 1002.43 1002.81 1003.30 1003.59 1003.75 1004.01 1004.60 1005.24 1005.83 1006.36 1006.73 1007.23 1007.58 1007.90 1008.19
988.18 988.65 989.09 989.60 990.19 990.83 991.46 991.86 992.43 992.96 993.47 994.11 994.77 995.50 996.32 997.11 997.77 998.33 998.77 999.13 999.63 1000.16 1000.48 1000.85 1001.39 1001.94 1002.34 1002.68 1002.94 1003.14 1003.27 1003.46 1003.77 1004.35 1004.85 1005.65 1006.42 1006.87 1007.34 1007.78 1008.22 1008.68 1009.08
989.14 989.70 990.08 990.40 990.88 991.50 992.14 992.69 993.46 994.22 994.88 995.48 996.28 997.06 997.79 998.37 998.91 999.45 999.92 1000.29 1000.75 1001.22 1001.72 1002.00 1002.41 1002.73 1002.93 1003.27 1003.54 1003.75 1003.91 1003.93 1004.34 1004.88 1005.48 1006.16 1006.89 1007.47 1007.98 1008.53 1009.08 1009.63 1010.05
990.60 990.99 991.34 991.64 992.15 992.69 993.39 994.16 994.94 995.55 996.26 997.01 997.78 998.48 999.02 999.53 1000.13 1000.56 1000.98 1001.33 1001.76 1002.32 1002.79 1003.15 1003.36 1003.41 1003.69 1004.05 1004.38 1004.46 1004.57 1004.87 1005.29 1005.67 1006.16 1006.89 1007.63 1008.41 1009.01 1009.66 1010.24 1010.79 1011.27
Thickness
5636 5636 5636 5637 5640 5642 5645 5649 5655 5656 5656 5660 5664 5660 5669 5666 5674 5676 5681 5690 5700 5709 5711 5708 5701 5707 5711 5711 5706 5706 5700 5691 5686 5687 5692 5686 5680 5678 5674 5671 5666 5662 5655
5628 5628 5630 5632 5632 5631 5632 5635 5640 5646 5649 5652 5652 5655 5658 5659 5663 5670 5674 5687 5694 5699 5707 5705 5709 5710 5706 5709 5703 5702 5697 5690 5687 5685 5683 5677 5675 5672 5668 5664 5660 5655 5649
5620 5622 5623 5623 5624 5625 5626 5630 5634 5637 5639 5644 5650 5650 5651 5656 5661 5667 5670 5679 5689 5697 5704 5708 5704 5699 5704 5704 5702 5699 5695 5688 5688 5685 5675 5673 5671 5664 5662 5657 5653 5646 5644
5605 5606 5607 5610 5613 5615 5618 5621 5624 5628 5632 5637 5642 5645 5648 5651 5655 5662 5670 5676 5683 5692 5695 5695 5695 5697 5701 5701 5699 5702 5693 5685 5686 5681 5672 5667 5663 5658 5659 5650 5643 5639 5640
5593 5595 5598 5601 5604 5606 5609 5612 5617 5620 5625 5630 5636 5641 5645 5647 5652 5657 5664 5670 5677 5684 5686 5693 5696 5702 5704 5703 5699 5698 5691 5682 5678 5672 5668 5664 5657 5652 5653 5645 5638 5637 5637
5584 5588 5591 5594 5596 5598 5600 5603 5607 5611 5617 5623 5630 5634 5639 5646 5652 5654 5658 5664 5672 5678 5682 5691 5698 5696 5701 5699 5699 5698 5693 5682 5676 5669 5666 5661 5654 5650 5648 5641 5634 5632 5631
5575 5580 5583 5586 5589 5592 5593 5594 5596 5598 5602 5610 5620 5627 5637 5646 5648 5651 5657 5660 5665 5674 5681 5689 5688 5698 5698 5696 5690 5688 5684 5682 5680 5675 5664 5659 5653 5649 5645 5636 5632 5631 5629
5566 5570 5574 5574 5576 5578 5581 5587 5589 5589 5593 5601 5611 5622 5630 5640 5645 5650 5657 5662 5667 5673 5681 5689 5688 5692 5693 5689 5682 5679 5676 5675 5672 5672 5665 5659 5653 5646 5643 5638 5633 5628 5625
5558 5561 5563 5564 5565 5566 5570 5574 5578 5577 5585 5591 5601 5611 5622 5632 5639 5645 5650 5660 5665 5673 5682 5690 5689 5686 5684 5683 5680 5674 5669 5665 5661 5660 5658 5653 5646 5642 5637 5631 5626 5621 5618
5550 5551 5552 5552 5552 5554 5560 5565 5566 5567 5573 5580 5590 5599 5611 5622 5630 5635 5643 5654 5663 5671 5677 5683 5678 5677 5670 5672 5674 5669 5665 5659 5658 5652 5648 5643 5637 5634 5632 5630 5626 5620 5614
5537 5539 5539 5539 5540 5543 5547 5550 5554 5556 5560 5568 5578 5587 5596 5608 5621 5629 5638 5647 5659 5664 5667 5674 5672 5664 5663 5666 5670 5668 5662 5659 5650 5644 5641 5634 5631 5628 5626 5624 5624 5622 5619
5522 5526 5527 5529 5531 5533 5534 5537 5539 5542 5543 5552 5562 5571 5585 5598 5609 5622 5631 5639 5654 5662 5667 5673 5671 5665 5661 5662 5663 5658 5656 5653 5644 5638 5632 5625 5622 5621 5621 5623 5623 5623 5623
5511 5513 5516 5519 5522 5524 5526 5529 5528 5530 5533 5540 5546 5558 5570 5588 5601 5612 5624 5635 5645 5658 5666 5664 5658 5653 5654 5653 5653 5651 5649 5647 5640 5632 5626 5621 5621 5619 5619 5620 5621 5622 5623
5506 5510 5510 5511 5515 5517 5522 5525 5525 5525 5526 5530 5539 5550 5561 5579 5594 5608 5622 5633 5641 5650 5649 5644 5647 5646 5651 5647 5646 5645 5645 5644 5636 5627 5620 5619 5620 5619 5618 5619 5619 5619 5619
5503 5505 5503 5506 5509 5512 5514 5520 5521 5524 5526 5530 5538 5549 5562 5579 5597 5608 5620 5635 5646 5655 5651 5645 5640 5644 5647 5644 5640 5640 5640 5636 5629 5623 5618 5619 5620 5619 5619 5619 5618 5617 5616
5501 5503 5501 5502 5504 5505 5509 5514 5516 5521 5528 5534 5542 5557 5572 5582 5592 5607 5619 5631 5637 5649 5651 5644 5642 5644 5643 5638 5636 5635 5632 5628 5625 5622 5621 5621 5621 5620 5620 5619 5617 5616 5615
5498 5499 5501 5499 5500 5501 5508 5514 5522 5524 5532 5544 5550 5559 5569 5583 5595 5610 5618 5625 5634 5645 5647 5643 5641 5639 5636 5638 5635 5630 5628 5625 5624 5623 5622 5622 5623 5621 5618 5618 5617 5615 5612
5500 5498 5501 5501 5502 5507 5515 5523 5531 5540 5548 5557 5561 5568 5577 5588 5598 5610 5617 5624 5632 5636 5643 5640 5637 5637 5638 5634 5628 5627 5624 5623 5623 5623 5624 5624 5621 5620 5617 5617 5616 5616 5614
5508 5507 5506 5508 5512 5517 5525 5534 5541 5549 5556 5563 5566 5576 5587 5595 5604 5610 5620 5628 5633 5636 5637 5637 5638 5636 5631 5628 5626 5625 5625 5625 5625 5625 5624 5623 5620 5618 5616 5615 5613 5609 5609
5524 5522 5523 5526 5530 5537 5544 5550 5557 5563 5566 5573 5587 5594 5597 5604 5607 5618 5623 5626 5631 5635 5636 5636 5633 5630 5628 5626 5625 5625 5623 5622 5623 5624 5623 5623 5621 5619 5616 5614 5611 5610 5609
5553 5551 5547 5552 5553 5560 5567 5572 5574 5577 5583 5592 5598 5593 5599 5617 5614 5619 5624 5627 5631 5634 5635 5632 5630 5628 5627 5626 5625 5624 5623 5623 5623 5623 5623 5621 5619 5616 5615 5612 5609 5606 5604
5591 5589 5581 5586 5592 5596 5596 5589 5591 5595 5597 5602 5603 5596 5602 5617 5619 5620 5622 5625 5629 5632 5633 5631 5628 5627 5626 5625 5624 5622 5622 5623 5623 5623 5621 5618 5615 5612 5610 5607 5603 5601 5600
5606 5604 5599 5598 5602 5600 5603 5601 5599 5600 5603 5605 5610 5614 5617 5617 5617 5617 5620 5622 5625 5627 5626 5625 5623 5621 5621 5622 5622 5622 5621 5621 5621 5621 5617 5612 5608 5605 5602 5599 5596 5594 5593
5617 5615 5614 5611 5609 5609 5607 5607 5606 5606 5611 5612 5613 5613 5611 5610 5609 5611 5612 5614 5614 5613 5615 5617 5616 5615 5614 5615 5616 5618 5620 5620 5619 5615 5611 5606 5600 5598 5595 5592 5589 5586 5582
5620 5617 5616 5618 5616 5613 5611 5610 5608 5606 5604 5604 5603 5601 5600 5600 5601 5600 5601 5603 5604 5605 5604 5606 5607 5607 5608 5609 5610 5611 5613 5614 5611 5608 5604 5600 5595 5591 5588 5584 5580 5576 5571
5616 5614 5612 5612 5612 5609 5606 5603 5600 5599 5597 5596 5593 5592 5591 5592 5591 5592 5594 5596 5596 5595 5595 5596 5597 5600 5601 5601 5602 5604 5605 5604 5601 5599 5596 5592 5587 5581 5577 5571 5567 5561 5555